Regional Weather Roundup
Issued by NWS

Home | Current Version | Previous Version | Text Only | Print | Product List | Glossary Off
Versions: 1 2 3 4 5 6 7 8 9 10 11 12 13 14 15 16 17 18 19 20 21 22 23 24 25 26 27 28 29 30 31 32 33 34 35 36 37 38 39 40 41 42 43 44 45 46 47 48 49 50

000
ASUS43 KOAX 191010
RWRNE

WEATHER ROUNDUP FOR NEBRASKA
NATIONAL WEATHER SERVICE OMAHA NE
500 AM CDT SUN APR 19 2015

NOTES: SATELLITE DATA IS BEING USED TO AUGMENT CLOUD COVER ABOVE
       12000 FEET.
       "FAIR" INDICATES FEW OR NO CLOUDS BELOW 12,000 FEET WITH NO
       SIGNIFICANT WEATHER AND/OR OBSTRUCTIONS TO VISIBILITY.

  * THESE STATIONS DO NOT REPORT WEATHER SUCH AS RAIN...SNOW OR FOG.

NEZ001>004-019>022-054>056-191100-
NEBRASKA PANHANDLE

CITY           SKY/WX    TMP DP  RH WIND       PRES   REMARKS
SCOTTSBLUFF    MOCLDY    42  32  67 N18       30.06R
ALLIANCE       CLOUDY    42  34  73 N24G33    30.00R
CHADRON        CLOUDY    42  36  79 NW9       30.05R
KIMBALL        CLOUDY    39  32  77 N24G33    30.02R WCI  28
SIDNEY         CLOUDY    41  35  79 N20G36    30.00R
$$

NEZ057>060-069>072-079>082-191100-
SOUTHWEST NEBRASKA

CITY           SKY/WX    TMP DP  RH WIND       PRES   REMARKS
NORTH PLATTE   LGT RAIN  48  45  89 N18G29    29.85S
IMPERIAL       LGT RAIN  46  44  93 N22G28    29.90R
LEXINGTON      LGT RAIN  52  49  90 NW9       29.82R
MCCOOK         CLOUDY    50  45  83 NW23      29.83R
OGALLALA       CLOUDY    46  43  90 N23       29.92R
$$

NEZ005>010-023>029-035>040-094-191100-
NORTH CENTRAL NEBRASKA

CITY           SKY/WX    TMP DP  RH WIND       PRES   REMARKS
VALENTINE      LGT RAIN  46  44  93 N20G30    29.91R
AINSWORTH      DRIZZLE   46  46  98 NW17G24   29.89R
BROKEN BOW     RAIN      50  47  89 N28G41    29.81R
O`NEILL        CLOUDY    49  47  94 NW21G28   29.83R
ORD            CLOUDY    51  47  86 NW20G28   29.79R
THEDFORD       DRIZZLE   47  45  93 N18G24    29.90R
$$

NEZ041-046>049-061>064-073>077-083>087-191100-
SOUTH CENTRAL NEBRASKA

CITY           SKY/WX    TMP DP  RH WIND       PRES   REMARKS
GRAND ISLAND   CLOUDY    52  47  83 NW10      29.77R
AURORA         CLOUDY    52  51  97 NW8       29.76S
HASTINGS       CLOUDY    52  48  86 NW8       29.76S
HEBRON         DRIZZLE   53  50  89 CALM      29.77S
HOLDREGE       LGT RAIN  50  48  90 N3        29.79F
KEARNEY *      CLOUDY    52  46  82 NW12      29.78S
YORK           CLOUDY    54  48  82 CALM      29.76F
$$

NEZ011>018-030>034-042>045-191100-
NORTHEAST NEBRASKA

CITY           SKY/WX    TMP DP  RH WIND       PRES   REMARKS
ALBION         CLOUDY    53  47  82 NW17      29.76F
BLAIR          FOG       55  53  95 S7        29.74R VSB 1/4
COLUMBUS *     CLOUDY    55  45  67 NW10      29.76S
FREMONT        FOG       55  54  97 CALM      29.75R VSB 1/2
TEKAMAH        CLOUDY    56  55  97 SE6       29.73S FOG
WAYNE          CLOUDY    53  52  97 W7        29.75S FOG
$$

NEZ050>053-065>068-078-088>093-191100-
SOUTHEAST NEBRASKA

CITY           SKY/WX    TMP DP  RH WIND       PRES   REMARKS
LINCOLN        CLOUDY    55  51  86 S3        29.76F
OMAHA EPPLEY   FOG       57  56  96 SE3       29.74R VSB 1/4
BEATRICE       LGT RAIN  53  52  97 NW6       29.76S
FALLS CITY     CLOUDY    52  51  97 SE6       29.73S
NEBRASKA CITY  FOG       56  56  99 E5        29.73F VSB 1/4
PLATTSMOUTH    FOG       56  54  95 CALM      29.73F VSB 1/4
$$

NEZ044-045-051>053-067-191100-
OMAHA AREA

CITY           SKY/WX    TMP DP  RH WIND       PRES   REMARKS
OMAHA EPPLEY   FOG       57  56  96 SE3       29.74R VSB 1/4
BLAIR          FOG       55  53  95 S7        29.74R VSB 1/4
FREMONT        FOG       55  54  97 CALM      29.75R VSB 1/2
MILLARD        FOG       56  55  96 CALM      29.74S VSB 1/4
OFFUTT AFB     FOG       56  56  99 N1        29.73S VSB 1/4
PLATTSMOUTH    FOG       56  54  95 CALM      29.73F VSB 1/4
WAHOO          FOG       53  51  94 W3        29.74F VSB 1/4
$$


USA.gov is the U.S. government's official web portal to all federal, state and local government web resources and services.